Poteau, OK

6:01 AM CST on February 13, 2016 (GMT -0600)
Kerr

Weather History for KRKR - January, 2013

Change the Weather History Date:

Tuesday, January 8, 2013

  Actual Average (KFSM) Record (KFSM)
Temperature  
Mean Temperature 46 °F 39 °F  
Max Temperature 59 °F 49 °F 76 °F (1969)
Min Temperature 32 °F 29 °F -7 °F (1886)
Degree Days  
Heating Degree Days 20 26  
Month to date heating degree days 208  
Since 1 July heating degree days 1507  
Moisture  
Dew Point 40 °F    
Average Humidity 86    
Maximum Humidity 100    
Minimum Humidity 54    
Precipitation  
Precipitation 0.31 in 0.08 in 2.04 in (1889)
Month to date precipitation 0.71  
Year to date precipitation 0.71  
Sea Level Pressure  
Sea Level Pressure 30.13 in    
Wind  
Wind Speed 0 mph (North)    
Max Wind Speed 7 mph    
Max Gust Speed -    
Visibility 9 miles    
Events Rain    
T = Trace of Precipitation, MM = Missing Value Source: NWS Daily Summary

Daily Weather History Graph

Daily Weather History Graph

Search for Another Location

Airport or City:

Trip Planner

Search our weather history database for the weather conditions in past years. The results will help you decide how hot, cold, wet, or windy it might be!

Date:

Astronomy

Jan. 08, 2013 Rise Set
Actual Time 7:27 AM CST 5:23 PM CST
Civil Twilight 6:59 AM CST 5:51 PM CST
Nautical Twilight 6:27 AM CST 6:23 PM CST
Astronomical Twilight 5:57 AM CST 6:53 PM CST
Moon 4:01 AM CST (1/8) 2:26 PM CST (1/8)
Length of Visible Light 10h 52m
Length of Day
9h 56m
Waning Crescent, 13% of the Moon is Illuminated
Jan 8
Waning Crescent
Jan 11
New
Jan 18
First Quarter
Jan 26
Full
Feb 3
Last Quarter

Hourly Weather History & Observations

Time (CST) Temp. Dew Point Humidity Pressure Visibility Wind Dir Wind Speed Gust Speed Precip Events Conditions
12:15 AM 32.0 °F 30.2 °F 93% 30.15 in 10.0 mi Calm Calm - N/A   Clear
12:35 AM 32.0 °F 30.2 °F 93% 30.15 in 10.0 mi Calm Calm - N/A   Clear
12:55 AM 33.8 °F 30.2 °F 87% 30.15 in 10.0 mi Calm Calm - N/A   Clear
1:15 AM 32.0 °F 30.2 °F 93% 30.16 in 10.0 mi Calm Calm - N/A   Clear
1:35 AM 32.0 °F 30.2 °F 93% 30.16 in 10.0 mi Calm Calm - N/A   Clear
1:55 AM 32.0 °F 30.2 °F 93% 30.16 in 10.0 mi Calm Calm - N/A   Clear
2:15 AM 32.0 °F 30.2 °F 93% 30.16 in 10.0 mi Calm Calm - N/A   Clear
2:35 AM 32.0 °F 30.2 °F 93% 30.16 in 10.0 mi Calm Calm - N/A   Scattered Clouds
2:55 AM 32.0 °F 30.2 °F 93% 30.16 in 10.0 mi Calm Calm - N/A   Overcast
3:15 AM 32.0 °F 30.2 °F 93% 30.16 in 10.0 mi Calm Calm - N/A   Overcast
3:35 AM 32.0 °F 32.0 °F 100% 30.16 in 10.0 mi Calm Calm - N/A   Overcast
3:55 AM 33.8 °F 32.0 °F 93% 30.15 in 10.0 mi Calm Calm - N/A   Overcast
4:15 AM 33.8 °F 32.0 °F 93% 30.15 in 10.0 mi Calm Calm - N/A   Overcast
4:35 AM 32.0 °F 32.0 °F 100% 30.14 in 10.0 mi Calm Calm - N/A   Overcast
4:55 AM 33.8 °F 32.0 °F 93% 30.15 in 10.0 mi Calm Calm - N/A   Overcast
5:15 AM 33.8 °F 32.0 °F 93% 30.14 in 10.0 mi Calm Calm - N/A   Overcast
5:35 AM 33.8 °F 32.0 °F 93% 30.14 in 10.0 mi Calm Calm - N/A   Overcast
6:15 AM 33.8 °F 32.0 °F 93% 30.15 in 10.0 mi Calm Calm - N/A   Overcast
6:35 AM 35.6 °F 32.0 °F 87% 30.15 in 10.0 mi Calm Calm - N/A   Overcast
6:55 AM 35.6 °F 32.0 °F 87% 30.15 in 10.0 mi Calm Calm - N/A   Overcast
7:35 AM 35.6 °F 32.0 °F 87% 30.16 in 10.0 mi Calm Calm - N/A   Overcast
7:55 AM 35.6 °F 32.0 °F 87% 30.16 in 10.0 mi Calm Calm - N/A   Overcast
8:15 AM 37.4 °F 33.8 °F 87% 30.17 in 10.0 mi Calm Calm - N/A   Overcast
8:35 AM 41.0 °F 33.8 °F 76% 30.18 in 10.0 mi Calm Calm - N/A   Overcast
8:55 AM 41.0 °F 35.6 °F 81% 30.18 in 10.0 mi Calm Calm - N/A   Overcast
9:15 AM 42.8 °F 33.8 °F 70% 30.18 in 10.0 mi Calm Calm - N/A   Overcast
9:35 AM 42.8 °F 33.8 °F 70% 30.18 in 10.0 mi Calm Calm - N/A   Overcast
9:55 AM 42.8 °F 33.8 °F 70% 30.18 in 10.0 mi Calm Calm - N/A   Mostly Cloudy
10:15 AM 44.6 °F 35.6 °F 71% 30.18 in 10.0 mi Calm Calm - N/A   Mostly Cloudy
10:35 AM 48.2 °F 37.4 °F 66% 30.17 in 10.0 mi Calm Calm - N/A   Scattered Clouds
10:55 AM 48.2 °F 37.4 °F 66% 30.16 in 10.0 mi Calm Calm - N/A   Mostly Cloudy
11:15 AM 51.8 °F 39.2 °F 62% 30.15 in 10.0 mi Calm Calm - N/A   Overcast
11:35 AM 51.8 °F 37.4 °F 58% 30.13 in 10.0 mi Calm Calm - N/A   Overcast
11:55 AM 53.6 °F 37.4 °F 54% 30.12 in 10.0 mi Calm Calm - N/A   Overcast
12:15 PM 53.6 °F 39.2 °F 58% 30.10 in 10.0 mi Calm Calm - N/A   Scattered Clouds
12:35 PM 55.4 °F 41.0 °F 58% 30.08 in 10.0 mi Calm Calm - N/A   Mostly Cloudy
12:55 PM 55.4 °F 39.2 °F 54% 30.08 in 10.0 mi Calm Calm - N/A   Scattered Clouds
1:15 PM 57.2 °F 41.0 °F 55% 30.07 in 10.0 mi Calm Calm - N/A   Mostly Cloudy
1:55 PM 59.0 °F 44.6 °F 59% 30.07 in 10.0 mi SSE 4.6 mph - N/A   Mostly Cloudy
2:15 PM 59.0 °F 44.6 °F 59% 30.08 in 10.0 mi SSW 4.6 mph - N/A   Overcast
2:35 PM 55.4 °F 46.4 °F 72% 30.08 in 10.0 mi Calm Calm - N/A Rain Light Rain
2:55 PM 55.4 °F 51.8 °F 88% 30.09 in 5.0 mi Calm Calm - N/A Rain Light Rain
3:15 PM 53.6 °F 51.8 °F 94% 30.08 in 10.0 mi Calm Calm - N/A   Light Drizzle
3:35 PM 53.6 °F 51.8 °F 94% 30.08 in 10.0 mi Calm Calm - 0.01 in Rain Light Rain
3:55 PM 53.6 °F 51.8 °F 94% 30.08 in 10.0 mi Calm Calm - 0.01 in Rain Light Rain
4:15 PM 51.8 °F 50.0 °F 94% 30.06 in 10.0 mi Calm Calm - 0.01 in Rain Light Rain
4:35 PM 51.8 °F 50.0 °F 94% 30.06 in 10.0 mi Calm Calm - 0.01 in   Drizzle
4:55 PM 51.8 °F 50.0 °F 94% 30.06 in 10.0 mi Calm Calm - 0.01 in   Overcast
5:15 PM 51.8 °F 48.2 °F 88% 30.07 in 10.0 mi Calm Calm - N/A Rain Light Rain
5:35 PM 51.8 °F 50.0 °F 94% 30.08 in 10.0 mi Calm Calm - N/A   Overcast
5:55 PM 51.8 °F 50.0 °F 94% 30.10 in 10.0 mi Calm Calm - N/A Rain Light Rain
6:35 PM 51.8 °F 50.0 °F 94% 30.10 in 2.5 mi Calm Calm - 0.16 in Rain Light Rain
6:55 PM 48.2 °F 46.4 °F 93% 30.11 in 5.0 mi NNW 5.8 mph - 0.20 in Rain Rain
7:15 PM 48.2 °F 48.2 °F 100% 30.13 in 7.0 mi North 3.5 mph - N/A Rain Light Rain
7:35 PM 48.2 °F 46.4 °F 93% 30.13 in 7.0 mi North 4.6 mph - N/A Rain Light Rain
7:55 PM 48.2 °F 46.4 °F 93% 30.13 in 3.0 mi North 5.8 mph - 0.04 in Rain Rain
8:15 PM 48.2 °F 48.2 °F 100% 30.14 in 7.0 mi North 6.9 mph - N/A Rain Light Rain
8:35 PM 48.2 °F 48.2 °F 100% 30.14 in 5.0 mi Calm Calm - N/A Rain Light Rain
8:55 PM 48.2 °F 48.2 °F 100% 30.15 in 4.0 mi North 4.6 mph - 0.01 in Rain Rain
9:35 PM 46.4 °F 46.4 °F 100% 30.15 in 5.0 mi Calm Calm - 0.02 in Rain Rain
9:55 PM 46.4 °F 46.4 °F 100% 30.14 in 5.0 mi Calm Calm - 0.03 in Rain Rain
10:15 PM 46.4 °F 46.4 °F 100% 30.15 in 4.0 mi Calm Calm - N/A   Overcast
10:35 PM 46.4 °F 46.4 °F 100% 30.16 in 7.0 mi Calm Calm - N/A Rain Light Rain
11:55 PM 46.4 °F 46.4 °F 100% 30.20 in 4.0 mi Calm Calm - 0.01 in   Light Drizzle